FW6210 Weather Reports


Display with metric or nautical units.
time (UTC)temp
F
wind
direction
speed
MPH
gust
MPH
rain 1hr
in
rain 24hr
in
rain mn
in
humidity
%
barometer
mb
20260505153108 32 209 0.0 1.0 0.05 0.28 0.28 96 1004.4
20260505151557 32 209 0.0 0.0 0.05 0.27 0.27 96 1004.6
20260505124547 33 209 0.0 0.0 0.11 0.20 0.20 94 1004.6
20260505123043 34 209 0.0 2.0 0.12 0.18 0.18 94 1004.4
20260505121542 34 209 0.0 1.0 0.11 0.15 0.15 93 1004.7
20260505120037 35 209 0.0 1.0 0.11 0.12 0.12 92 1005.0
20260505114539 36 209 0.0 1.0 0.09 0.09 0.09 93 1004.9
20260505113031 36 209 0.0 1.0 0.06 0.06 0.06 93 1004.9
20260505111535 37 208 1.0 2.0 0.04 0.04 0.04 93 1004.9
20260505101524 37 117 0.0 0.0 0.00 0.00 0.00 92 1005.1
20260505100029 37 117 0.0 0.0 0.00 0.00 0.00 92 1005.3
20260505094522 37 117 0.0 0.0 0.00 0.00 0.00 92 1005.3
20260505093020 37 117 0.0 0.0 0.00 0.00 0.00 92 1005.6
20260505091518 37 117 0.0 0.0 0.00 0.00 0.00 92 1005.7
20260505090026 37 117 0.0 0.0 0.00 0.00 0.00 92 1005.8
20260505084517 37 117 0.0 0.0 0.00 0.00 0.00 92 1005.9
20260505083024 37 117 0.0 0.0 0.00 0.00 0.00 92 1006.1
20260505081513 37 117 0.0 0.0 0.00 0.00 0.00 92 1006.4
20260505080011 37 117 0.0 0.0 0.00 0.00 0.00 92 1006.6
20260505074510 37 117 0.0 0.0 0.00 0.00 0.00 93 1006.8
20260505073009 37 117 0.0 0.0 0.00 0.00 0.00 93 1006.8
20260505071515 37 117 0.0 0.0 0.00 0.00 0.00 92 1007.1
20260505070006 37 117 0.0 0.0 0.00 0.00 0.00 92 1007.2
20260505064505 37 117 0.0 0.0 0.00 0.00 0.00 92 1007.2
20260505063003 37 117 0.0 0.0 0.00 0.00 0.00 91 1007.5
20260505061508 37 117 0.0 0.0 0.00 0.00 0.00 90 1007.4
20260505060100 37 117 0.0 0.0 0.00 0.00 0.00 89 1007.4
20260505054626 37 117 0.0 0.0 0.00 0.00 0.00 89 1007.3
20260505053058 37 117 0.0 0.0 0.00 0.00 0.00 88 1007.5
20260505051559 37 117 0.0 0.0 0.00 0.00 0.00 87 1007.3
20260505041555 37 117 0.0 0.0 0.00 0.00 0.00 85 1007.3
20260505040058 37 117 0.0 0.0 0.00 0.00 0.00 85 1007.4
20260505034553 38 117 0.0 0.0 0.00 0.00 0.00 84 1007.1
20260505033054 37 26 0.0 0.0 0.00 0.00 0.00 84 1007.0
20260505031550 37 26 0.0 0.0 0.00 0.00 0.00 84 1006.9
20260505030050 38 26 0.0 2.0 0.00 0.00 0.00 83 1006.6
20260505024606 39 26 0.0 2.0 0.00 0.00 0.00 82 1006.2
20260505023050 40 27 0.0 2.0 0.00 0.00 0.00 81 1005.9
20260505021603 41 27 0.0 2.0 0.00 0.00 0.00 79 1005.6
20260505020048 42 27 1.0 2.0 0.00 0.00 0.00 77 1005.4
20260505014547 44 26 0.0 1.0 0.00 0.00 0.00 73 1005.2
20260505013047 45 26 0.0 3.0 0.00 0.00 0.00 69 1005.3
20260505011552 45 48 1.0 3.0 0.00 0.00 0.00 67 1005.2
20260505010044 44 29 0.0 2.0 0.00 0.00 0.00 69 1005.2
20260505004546 44 28 0.0 2.0 0.00 0.00 0.00 69 1005.3
20260505003043 44 31 0.0 2.0 0.00 0.00 0.00 69 1005.5
20260505001542 44 38 0.0 3.0 0.00 0.00 0.00 71 1005.5
20260505000044 43 38 0.0 5.0 0.00 0.00 0.00 73 1005.6
20260504234542 43 10 1.0 4.0 0.00 0.00 0.00 76 1005.6
20260504233055 42 340 1.0 4.0 0.00 0.00 0.00 73 1006.6
20260504231540 43 36 2.0 4.0 0.00 0.00 0.00 69 1006.5
20260504230043 43 27 1.0 7.0 0.00 0.00 0.00 68 1006.2
20260504224539 44 314 1.0 2.0 0.00 0.00 0.00 71 1006.1
20260504223041 44 20 0.0 1.0 0.00 0.00 0.00 76 1005.8
20260504221545 44 31 0.0 3.0 0.00 0.00 0.00 74 1005.9
20260504220052 45 333 0.0 3.0 0.00 0.00 0.00 69 1005.6
20260504214539 46 158 4.0 9.0 0.00 0.00 0.00 64 1005.5
20260504213037 48 347 2.0 6.0 0.00 0.00 0.00 61 1005.6
20260504211536 50 291 1.0 6.0 0.00 0.00 0.00 56 1005.1
20260504210036 52 318 1.0 5.0 0.00 0.00 0.00 50 1004.5
20260504204553 52 41 0.0 3.0 0.00 0.00 0.00 46 1004.4
20260504203037 52 325 0.0 6.0 0.00 0.00 0.00 51 1004.6
20260504201535 53 355 2.0 9.0 0.00 0.00 0.00 51 1004.7
20260504200042 53 13 2.0 12.0 0.00 0.00 0.00 48 1004.7
20260504194539 54 38 2.0 8.0 0.00 0.00 0.00 46 1004.6
20260504193033 56 70 2.0 13.0 0.00 0.00 0.00 48 1004.4
20260504191533 56 231 3.0 7.0 0.00 0.00 0.00 46 1004.6
20260504190036 56 225 2.0 6.0 0.00 0.00 0.00 46 1004.9
20260504184534 57 316 2.0 7.0 0.00 0.00 0.00 45 1005.4
20260504183025 56 63 2.0 8.0 0.00 0.00 0.00 44 1005.6
20260504181523 55 184 2.0 8.0 0.00 0.00 0.00 50 1005.8
20260504180018 54 71 2.0 5.0 0.00 0.00 0.00 49 1006.0
20260504174514 53 324 3.0 8.0 0.00 0.00 0.00 53 1006.3
20260504173012 52 162 1.0 5.0 0.00 0.00 0.00 53 1006.6
20260504171510 52 84 1.0 4.0 0.00 0.00 0.00 53 1006.8